Wind_Speed
4 2 3 0 4 2 1 2 1 4 4 3 3 3 5 8 7 4 6 9 9 8 8 6 4 3 6 8 7 5 3 2 1 2 4 4 4 3 3 3 4 6 7 6 4 3 5 7 8 8 9 9 8 8 9 10 11 10 8 7 9 12 13 12 11 10 9 8 7 6 6 6 6 5 5 4 4 4 4 3 2 2 3 3 4 4 3
8 7 5 5 5 4 6 8 5 4 6 6 4 2 4 7 5 5 9 9 6 5 4 4 3 3 4 4 3 2 1 1 1 3 3 3 2 4 5 4 5 6 7 6 3 4 7 9 9 9 10 10 8 8 10 11 12 12 10 8 8 11 12 11 10 10 10 9 8 6 5 5 4 3 3 3 3 4 4 3 3 3 4 4 5 4 3
7 8 8 8 6 7 9 9 8 6 7 8 6 3 4 8 6 6 10 8 3 2 2 5 5 4 4 3 3 3 3 1 1 2 4 4 4 5 5 5 5 7 7 6 4 6 10 11 11 11 10 9 8 8 9 11 12 12 11 8 7 10 12 11 10 11 11 10 9 7 4 3 2 2 2 3 3 3 3 2 3 4 5 5 5 4 3
3 4 6 4 2 9 11 9 9 8 5 4 4 1 2 6 7 8 8 6 4 3 3 5 5 5 6 4 4 4 2 1 1 4 5 4 5 5 5 5 6 7 7 6 6 8 11 13 12 11 10 9 7 7 8 8 10 11 10 7 6 8 10 10 12 12 11 10 9 7 4 3 2 2 2 2 1 1 1 3 5 5 5 6 5 4 4
2 3 2 4 3 6 6 5 4 4 2 1 4 3 4 3 7 8 5 4 5 4 6 7 5 5 6 4 5 3 2 3 4 4 4 4 5 5 5 5 6 6 7 8 9 10 11 13 12 12 11 8 7 6 6 6 8 9 8 6 6 8 9 10 11 12 12 12 10 7 5 4 4 3 2 1 1 1 2 4 6 7 7 6 5 4 5
2 6 6 4 5 3 3 6 3 3 3 2 6 5 4 4 2 4 3 3 5 6 7 8 7 6 5 4 4 3 2 3 3 3 3 4 5 5 5 5 5 6 9 11 12 12 12 12 12 11 10 8 5 5 5 5 6 7 6 6 8 9 10 10 10 10 11 12 10 7 5 5 5 4 2 2 1 1 2 5 7 8 8 6 4 4 5
3 4 6 6 3 3 5 6 3 4 6 7 11 8 4 3 2 5 8 7 6 6 5 6 7 5 3 2 3 3 2 3 3 3 4 5 5 5 5 5 6 7 9 11 13 12 12 10 10 10 10 8 5 5 5 4 5 6 6 7 8 9 9 8 6 5 7 8 8 7 7 6 6 4 3 2 1 0 2 6 8 8 8 5 4 4 5
2 2 5 4 3 6 4 6 4 2 3 2 7 7 5 3 1 5 8 7 5 6 6 4 5 4 2 1 1 2 2 3 4 3 3 4 4 4 5 5 6 7 7 9 11 12 12 11 10 11 11 9 6 4 4 3 4 5 6 7 8 7 7 6 4 4 8 11 11 11 10 9 7 5 4 3 1 1 3 7 9 8 7 5 3 3 3
2 3 2 1 2 4 4 4 3 2 2 1 3 4 2 4 1 3 8 8 6 7 6 4 5 4 3 4 2 3 1 3 4 3 4 5 5 6 6 6 6 7 7 8 10 11 11 11 11 11 10 8 5 3 3 3 4 5 7 8 7 7 6 5 4 7 10 12 13 12 11 10 7 5 4 2 1 2 4 8 9 7 5 4 3 2 2
2 5 3 2 2 1 4 6 6 3 3 4 5 6 1 4 2 4 6 9 9 7 7 5 4 4 5 2 3 5 2 0 1 1 4 6 7 9 8 7 6 7 8 8 8 9 10 10 10 10 9 7 4 3 3 4 5 6 6 7 6 6 6 5 5 7 8 9 10 12 11 8 6 4 3 2 2 2 4 7 8 6 4 3 1 1 1
2 5 4 2 3 4 6 7 6 4 3 4 6 6 1 5 5 6 6 9 9 8 8 7 5 5 4 3 5 5 3 1 2 1 4 5 6 7 7 6 6 7 8 8 8 9 10 10 9 8 7 6 4 3 3 4 5 6 6 5 6 6 6 6 5 6 7 6 7 10 9 7 5 4 3 2 2 2 4 6 7 6 3 2 1 2 2
3 4 3 2 3 3 4 5 5 4 3 6 8 3 4 6 7 7 7 10 10 8 7 6 5 5 5 5 4 2 1 2 3 2 3 3 3 3 3 4 5 6 7 7 9 10 11 10 9 6 5 5 4 2 2 4 6 7 6 5 5 5 5 5 4 5 5 4 5 7 9 8 6 6 4 3 2 3 4 6 7 5 3 2 2 3 3
3 3 2 1 3 4 3 4 5 6 3 7 6 3 7 6 9 8 8 10 9 8 8 5 4 4 4 2 1 3 4 5 5 5 5 6 5 4 2 3 5 6 7 7 8 9 9 8 7 6 5 4 4 2 1 3 7 9 7 5 4 4 4 4 3 3 4 5 4 7 10 9 8 8 6 3 3 4 5 8 7 4 4 4 5 5 5
3 3 3 0 3 4 3 3 3 3 4 2 3 6 3 8 11 8 8 9 8 9 8 5 3 3 1 3 5 6 6 5 5 8 10 11 10 8 7 7 8 8 9 9 9 8 8 7 7 6 5 5 5 4 1 2 7 11 6 4 6 5 2 2 2 3 4 6 5 7 10 10 9 8 6 3 3 5 7 8 7 5 6 7 7 7 7
3 2 2 2 2 5 6 6 2 2 3 5 5 2 4 8 9 8 7 8 8 8 6 3 2 4 5 6 6 6 6 5 5 8 10 11 10 11 12 12 11 12 13 14 13 10 8 7 6 5 5 5 7 7 4 3 6 12 7 3 4 3 1 1 2 1 3 5 6 7 9 9 8 7 5 4 5 6 8 9 8 8 9 9 8 8 8
3 3 2 3 4 5 4 6 4 3 4 5 5 5 5 6 7 6 6 6 6 7 7 5 5 6 6 5 6 6 5 4 5 7 9 11 11 12 14 15 15 17 18 18 18 16 12 9 6 5 5 5 7 10 10 8 5 11 10 5 3 1 1 0 0 0 2 4 4 5 7 9 7 6 5 6 7 9 10 10 9 9 10 9 9 10 10
4 5 5 5 4 4 3 2 4 5 3 2 4 5 6 6 6 5 6 6 5 6 8 8 6 5 5 5 5 5 4 4 5 6 9 10 12 13 15 16 17 19 19 19 20 20 18 14 10 6 5 6 7 10 10 7 4 5 8 5 3 2 1 2 2 2 2 2 3 5 7 8 7 6 6 9 11 11 10 9 8 9 10 10 11 11 10
2 1 2 2 2 3 4 1 2 2 2 3 5 7 6 6 5 5 6 8 7 7 9 9 6 4 5 5 4 4 4 4 5 7 9 11 13 14 14 15 17 18 18 19 19 19 19 18 14 11 7 6 7 6 4 4 10 6 2 2 4 5 5 4 4 4 3 2 3 6 7 7 7 7 10 13 13 11 9 8 8 9 11 12 12 11 11
2 1 2 3 3 3 3 3 2 3 3 2 4 7 7 6 6 6 6 8 9 8 8 9 8 6 6 6 5 4 4 4 5 7 9 9 10 12 12 13 15 17 18 18 17 17 17 16 15 14 10 7 7 2 4 5 12 15 13 11 11 12 12 11 10 9 8 6 5 7 8 8 9 11 14 15 13 10 9 9 10 11 13 13 14 13 12
2 2 3 4 2 1 2 2 3 4 4 5 5 6 7 7 7 6 7 8 9 7 7 9 10 7 5 5 5 4 4 4 4 5 7 8 10 12 13 14 16 17 17 17 15 15 15 13 12 13 11 8 6 2 3 4 7 12 15 14 12 11 13 15 14 12 11 10 9 9 10 11 13 15 16 15 12 10 9 10 12 13 14 14 14 14 13
2 2 3 2 1 4 5 3 3 2 4 6 7 7 8 10 9 8 8 7 7 9 9 9 10 8 5 5 5 5 4 4 4 6 9 11 12 13 14 15 17 17 17 16 16 15 15 13 12 12 11 7 4 2 2 3 6 7 11 14 12 10 8 8 9 9 10 10 10 11 13 15 16 16 15 14 11 10 10 10 10 10 11 11 12 11 11
1 3 4 4 4 2 1 0 3 3 4 9 10 8 8 10 10 10 10 8 7 9 10 10 10 9 6 5 6 5 4 5 6 9 13 14 15 15 15 16 17 17 17 16 16 16 15 14 13 13 11 8 4 1 2 3 6 7 5 6 9 9 6 4 5 7 8 9 10 13 17 18 17 15 13 12 11 10 9 8 8 7 7 7 6 6 8
4 6 5 5 5 3 3 2 4 3 4 8 10 8 8 8 9 11 13 11 9 7 8 10 12 9 7 8 8 5 4 6 9 12 14 15 15 15 16 16 17 17 17 16 15 15 14 13 13 13 12 10 6 2 3 5 5 6 7 6 5 6 6 8 11 12 12 13 14 17 20 19 17 14 12 11 10 9 7 6 6 5 4 4 5 6 7
2 3 5 5 4 4 3 4 5 4 4 8 9 8 7 8 7 9 11 12 11 9 7 7 10 12 11 11 10 6 5 7 11 13 14 15 15 15 15 16 16 15 15 15 14 13 12 12 12 13 13 13 10 5 1 5 7 8 9 10 9 7 6 8 11 12 13 14 16 18 19 18 17 15 14 13 10 8 7 6 4 3 4 6 7 6 6
2 2 4 4 5 6 5 4 4 4 4 7 8 7 7 9 10 11 11 9 11 13 10 7 9 13 14 12 11 10 9 9 11 14 15 15 16 16 15 15 14 13 13 13 12 12 12 12 13 14 14 13 12 9 3 3 8 10 12 14 14 12 10 10 11 11 10 11 14 16 17 18 19 19 17 16 14 11 9 7 5 6 7 7 7 7 7
4 5 6 7 6 6 6 5 5 4 4 7 9 7 8 12 14 14 14 13 14 16 15 12 11 13 14 14 13 12 12 11 13 15 16 16 15 14 14 14 13 13 13 13 13 13 12 12 13 14 15 14 12 10 8 4 2 7 9 12 15 15 13 13 13 13 13 14 16 17 18 20 23 23 20 18 16 15 13 11 9 9 9 8 8 9 9
5 6 8 9 6 3 2 3 5 5 5 8 10 9 11 16 18 16 16 15 15 16 16 16 15 14 14 14 14 13 13 14 15 16 16 15 13 12 12 12 13 14 14 14 14 13 13 13 14 15 14 13 12 11 10 9 5 1 3 7 10 12 12 13 14 15 16 17 18 20 21 23 25 24 21 19 17 16 15 13 12 12 12 12 11 10 10
6 3 2 5 7 7 4 3 7 9 7 9 12 14 14 16 16 14 12 11 12 13 14 15 17 16 14 13 13 13 13 15 15 15 13 12 11 11 11 12 12 13 13 13 13 14 14 14 15 16 16 15 13 12 11 11 9 7 4 1 4 7 9 12 13 13 15 17 18 19 20 21 21 20 19 19 18 17 15 13 12 12 13 14 13 12 11
5 2 3 4 7 8 8 8 9 9 7 9 13 15 15 13 11 9 8 8 10 10 10 12 16 17 15 14 15 15 14 14 13 13 12 11 11 11 11 11 11 13 13 12 12 13 14 15 16 17 17 16 15 13 11 11 11 11 9 6 2 2 6 9 9 9 11 14 15 16 16 17 18 17 17 19 19 18 16 15 14 13 14 15 15 14 14
2 1 4 7 8 10 11 10 9 8 7 8 10 10 10 11 10 7 7 8 8 8 9 12 14 15 14 15 15 15 15 15 14 13 12 12 12 11 11 11 12 13 13 12 12 13 14 15 16 18 18 17 16 15 13 11 11 12 12 10 8 4 2 5 7 7 8 10 12 13 14 15 16 17 18 20 20 20 19 17 16 15 15 16 17 16 14
4 5 7 8 8 10 11 9 8 8 7 8 9 8 8 9 10 8 7 6 6 8 11 13 13 13 14 15 15 15 16 16 14 13 13 13 12 12 11 12 12 11 11 11 12 13 14 15 16 18 18 17 16 15 14 13 12 12 12 12 11 8 6 4 4 5 6 8 10 11 12 14 16 18 19 20 21 22 21 19 18 17 17 18 18 16 13
8 8 7 7 7 8 8 7 8 8 7 7 9 10 8 9 11 10 8 7 9 10 12 13 13 14 15 15 14 15 16 15 13 13 13 13 13 12 12 11 10 10 10 11 13 14 14 14 15 17 18 17 16 16 15 14 13 13 12 12 12 11 9 6 4 4 5 6 8 10 11 13 15 18 20 22 22 23 23 22 21 20 19 19 19 17 13
10 7 5 5 6 7 7 7 8 9 9 8 9 9 9 10 11 11 10 11 12 12 12 13 14 16 16 14 14 14 15 13 13 13 13 13 12 11 11 10 10 11 12 13 14 14 14 13 14 16 17 17 17 17 17 15 15 14 13 12 12 12 11 9 6 4 4 5 7 9 10 12 14 17 20 22 22 23 24 24 23 22 21 20 20 17 14
9 8 10 11 10 10 11 10 8 8 8 7 6 7 8 10 12 13 14 15 13 12 13 16 17 16 15 14 13 14 13 11 10 10 11 11 10 10 9 9 10 11 12 13 14 14 14 13 14 15 15 15 16 17 17 17 16 15 14 13 13 12 12 11 9 6 5 6 7 9 10 12 14 16 18 20 21 22 24 24 24 23 22 21 20 18 15
5 5 8 10 10 10 12 12 10 9 9 7 6 7 9 12 13 14 15 16 15 15 17 19 18 16 15 14 14 13 11 10 9 9 10 9 8 8 8 9 9 10 12 13 13 13 13 13 13 14 15 15 15 16 17 18 17 15 15 14 13 13 12 12 10 9 7 7 8 9 10 12 13 15 16 18 21 23 23 23 23 23 22 21 20 19 17
6 6 6 6 8 10 11 12 12 13 11 9 9 10 10 13 16 16 16 16 17 19 21 21 19 16 15 15 14 12 10 10 10 10 9 8 8 8 8 9 10 11 12 13 13 13 13 12 13 14 14 14 15 15 16 17 17 17 16 15 14 14 13 12 11 11 10 9 8 9 10 11 13 14 15 17 20 21 22 23 23 22 21 20 19 19 18
6 8 7 7 9 12 12 13 16 18 14 12 13 14 14 15 17 17 17 17 18 21 23 21 19 17 15 15 14 12 11 10 10 9 8 8 8 8 9 10 11 11 12 12 12 13 13 12 12 12 13 14 15 15 15 16 17 17 17 16 15 15 14 13 12 12 12 11 10 10 10 10 11 13 14 16 19 20 21 22 23 22 20 19 18 18 18
7 8 9 9 12 14 13 13 16 18 16 14 14 16 18 19 18 17 16 18 20 22 22 20 19 18 17 15 13 11 11 11 10 8 8 8 8 9 10 11 11 10 10 10 11 12 12 12 12 12 12 14 15 15 16 16 17 17 16 16 15 15 15 14 14 14 13 13 12 12 11 11 11 12 13 15 17 19 20 22 23 21 20 19 19 19 19
7 7 8 10 11 13 12 12 14 16 17 16 15 14 15 17 18 17 17 18 21 22 22 20 19 18 17 14 13 12 11 10 8 8 9 9 10 11 12 12 11 10 10 10 10 11 11 11 11 13 14 14 15 16 17 18 17 17 16 16 15 15 14 14 14 15 15 14 14 14 13 12 11 12 13 14 16 18 20 21 21 21 21 20 20 20 21
6 7 9 10 10 12 12 12 12 14 15 16 17 16 16 18 19 18 17 18 20 22 21 20 19 17 15 14 13 12 11 9 8 8 9 9 11 12 12 11 11 10 10 11 11 11 11 12 13 15 16 16 16 17 18 18 17 17 16 16 16 15 15 14 14 15 15 16 16 16 15 13 11 12 13 14 15 18 20 21 21 21 21 21 21 22 22
7 10 12 12 11 12 12 12 12 11 10 11 13 16 19 21 22 20 19 20 21 20 19 18 17 16 14 13 13 12 10 9 9 8 8 8 11 11 10 9 9 9 10 11 11 12 12 13 15 17 17 17 17 17 18 18 18 17 17 17 17 17 16 15 15 15 16 16 17 17 17 14 13 13 14 14 15 18 19 20 21 22 22 22 23 23 23
10 12 12 11 10 11 12 12 12 11 10 10 11 13 17 20 21 21 21 22 22 19 17 15 15 14 14 13 13 12 10 9 9 8 7 7 9 10 9 8 7 7 9 11 12 12 12 14 15 16 17 17 17 18 18 19 19 18 18 18 18 18 18 17 15 15 15 16 17 18 18 17 16 15 15 15 16 17 18 19 20 21 23 23 23 24 24
12 13 12 11 11 12 12 12 12 11 11 11 12 14 17 18 18 19 21 22 21 19 17 15 14 14 15 14 13 11 11 10 9 7 7 8 9 9 9 8 7 7 8 10 12 12 12 13 15 15 15 15 16 17 18 19 19 19 19 19 19 19 19 18 17 16 15 15 17 18 19 19 18 18 17 17 17 17 17 19 21 21 22 24 25 25 26
13 14 13 13 13 13 13 13 12 11 10 10 11 14 17 18 19 21 23 22 20 19 18 16 15 15 14 12 10 10 10 9 7 6 8 10 10 10 9 8 7 6 8 10 11 11 11 12 13 14 14 15 16 18 19 20 21 21 21 20 20 20 20 19 19 17 16 15 16 17 18 19 19 19 18 18 18 18 18 20 22 22 22 23 25 26 27
13 14 15 15 14 14 14 13 12 11 12 12 12 13 16 17 19 22 23 22 20 19 17 16 15 14 11 9 9 9 8 7 6 6 8 9 8 7 7 6 5 6 8 9 10 10 10 11 13 14 15 16 17 18 19 20 21 22 22 21 21 22 21 21 19 18 18 17 16 16 17 18 18 18 18 18 19 19 20 21 22 23 23 24 26 27 28
14 15 16 16 14 13 13 14 14 16 17 17 14 12 15 18 19 20 20 20 19 17 15 14 12 11 9 9 9 8 7 6 6 6 7 8 8 7 6 5 6 7 8 9 9 9 10 11 13 15 16 17 18 19 20 20 21 21 21 21 21 22 22 21 21 19 18 18 18 18 18 17 17 18 19 19 19 20 21 21 21 23 24 25 26 28 29
15 14 14 15 15 15 16 17 18 18 17 14 11 10 14 18 19 18 17 17 16 15 12 11 10 9 8 8 8 9 9 10 10 9 9 10 9 7 6 6 8 9 10 10 10 10 11 12 14 15 17 18 19 20 20 20 20 21 21 21 21 21 21 21 21 20 19 19 19 19 19 19 19 19 19 19 19 20 21 22 22 23 24 26 27 28 29
16 14 15 17 19 19 19 19 18 15 13 13 13 15 16 17 17 17 16 14 13 12 11 10 9 8 8 7 6 6 8 9 10 10 9 9 7 6 7 8 9 11 12 12 12 12 13 14 15 15 16 17 19 20 20 20 21 21 21 20 21 20 20 19 19 19 19 20 19 19 19 19 19 20 20 20 19 19 21 22 24 25 26 26 27 28 30
17 17 18 19 20 19 18 16 13 12 13 16 19 19 19 18 17 15 14 13 12 11 10 9 8 8 7 6 5 5 5 6 7 9 9 8 6 6 7 8 9 11 13 14 15 15 16 16 17 16 16 16 17 18 19 20 20 20 19 19 19 19 19 20 20 21 21 21 21 21 21 20 20 20 21 21 21 20 21 22 23 25 26 26 27 27 29
18 18 18 18 19 18 16 14 13 14 16 19 20 19 18 17 15 14 13 13 12 10 9 9 9 9 8 6 6 6 7 7 8 9 9 8 6 6 7 8 10 11 13 15 16 17 18 19 19 18 16 15 16 17 18 19 19 19 19 19 19 20 21 22 23 24 24 24 24 24 24 23 23 22 22 22 23 23 22 22 23 24 25 26 27 28 29
17 17 16 16 17 16 15 15 16 18 19 19 19 18 16 15 14 13 12 12 11 11 11 12 12 11 10 9 8 8 8 8 9 10 9 7 6 6 7 8 10 12 14 16 17 18 19 20 21 20 17 15 15 16 17 17 17 18 19 20 20 21 22 23 24 25 25 26 26 26 26 26 25 25 25 24 24 24 24 23 23 23 24 25 27 28 30
16 17 17 17 15 14 12 13 16 18 19 18 18 16 14 13 13 13 11 10 10 12 14 14 13 12 11 10 9 9 10 11 11 11 9 7 6 6 7 9 11 13 15 17 18 19 20 21 21 19 16 14 15 16 16 16 17 18 19 20 21 22 23 24 24 25 25 27 27 27 27 27 27 27 26 26 25 25 25 24 23 23 24 25 26 27 28
Wind_Direction
344 291 255 249 96 102 48 39 143 158 137 118 132 158 166 145 142 200 194 155 157 192 198 181 173 159 164 177 187 195 209 243 287 325 340 5 21 338 293 273 260 260 258 255 248 232 239 246 249 241 228 224 224 224 225 220 211 208 211 213 209 202 197 197 195 183 167 155 142 126 110 94 78 61 55 57 54 48 48 56 82 105 123 145 155 153 137
20 16 18 58 93 90 47 32 23 73 92 84 81 90 100 100 104 135 139 141 165 194 174 139 112 108 151 162 150 152 184 247 313 320 326 331 306 271 260 259 261 258 261 266 261 245 246 244 245 244 233 224 221 218 221 219 212 209 211 214 213 207 203 199 189 175 165 160 157 152 138 120 106 88 81 85 72 56 63 81 105 126 138 145 148 144 114
16 13 39 59 88 99 76 45 23 39 70 75 69 73 92 82 78 98 113 125 166 231 138 120 117 116 115 121 155 201 235 257 24 295 288 279 264 261 261 261 266 268 271 274 257 243 249 252 251 252 249 241 233 229 227 221 216 216 221 229 230 218 210 201 188 180 179 180 181 182 172 146 130 117 105 105 90 69 78 113 142 148 152 152 144 128 79
1 8 46 26 47 87 74 42 14 11 26 90 100 103 128 121 124 111 105 133 181 204 142 113 110 122 125 157 201 223 275 292 191 237 258 272 270 266 267 264 265 270 274 274 261 248 251 255 256 259 263 261 255 252 248 238 231 228 231 238 236 221 210 201 195 193 193 194 196 202 217 223 206 186 150 130 115 101 124 157 168 165 161 154 138 108 56
278 294 337 305 332 59 44 346 345 1 334 150 113 62 31 87 130 135 152 188 177 156 138 120 118 136 142 183 211 209 249 247 231 238 254 279 275 266 264 263 265 268 272 276 274 267 262 260 262 266 269 270 273 275 273 261 243 234 235 238 224 209 203 204 204 201 201 204 212 226 237 226 217 215 203 186 201 207 183 174 174 169 162 151 129 90 49
217 291 325 11 41 50 280 278 259 183 206 157 105 80 15 2 81 140 136 130 130 131 139 143 152 159 160 194 222 206 196 216 231 252 261 261 262 266 269 268 272 273 275 280 281 280 278 272 267 269 272 278 290 297 293 274 241 229 234 235 224 215 212 210 208 206 210 213 217 224 226 225 233 240 234 223 219 219 205 190 179 167 159 147 118 77 44
162 316 7 54 56 250 253 296 318 143 153 132 103 81 29 19 92 119 103 103 124 120 120 140 145 148 160 206 246 243 198 185 186 219 253 251 248 262 270 265 266 270 275 284 292 296 298 291 278 272 274 286 307 316 306 280 237 227 233 236 233 226 215 204 196 207 217 215 215 215 216 226 242 252 244 226 209 233 218 198 182 164 152 140 105 67 36
128 20 45 94 233 265 313 343 343 102 132 126 90 65 11 1 73 131 122 121 120 103 103 118 122 132 144 95 274 237 182 168 169 185 235 248 237 241 248 249 262 278 289 297 307 315 318 314 303 294 292 296 309 320 313 285 250 235 238 241 239 233 221 204 192 211 215 212 214 217 216 217 225 233 230 219 220 253 208 191 178 160 143 127 90 54 29
123 104 67 29 301 318 344 329 281 170 168 229 104 96 299 300 297 146 130 123 113 106 114 120 116 117 86 47 332 277 199 170 183 204 235 243 240 250 263 271 287 310 321 321 322 324 324 324 320 317 316 312 308 315 314 293 264 244 243 244 243 245 244 226 203 209 216 214 209 208 209 211 213 217 212 210 244 260 211 187 174 159 139 122 87 48 37
101 107 76 31 49 284 250 237 248 239 172 163 122 111 260 274 202 151 133 128 127 124 128 133 124 101 86 84 268 280 294 113 116 267 263 257 255 265 280 296 317 339 347 346 342 335 334 339 338 333 331 326 318 320 318 298 272 252 245 247 250 254 258 252 227 216 219 216 209 207 209 212 215 212 204 206 233 242 216 192 175 159 139 127 97 68 83
118 113 110 151 179 230 231 222 252 274 175 139 93 80 293 250 179 145 138 137 139 141 142 143 129 104 115 206 248 267 286 359 45 329 297 295 276 271 284 306 329 348 359 6 6 356 352 355 355 345 332 324 320 321 319 298 272 248 233 243 259 263 267 267 253 236 227 220 219 219 216 213 214 217 211 209 216 223 213 194 176 161 154 155 148 146 155
134 112 115 197 216 241 239 230 251 245 162 95 72 65 256 224 166 153 155 149 145 145 142 140 137 139 165 212 241 239 188 60 45 1 333 338 314 290 293 311 332 349 1 8 8 3 0 359 360 357 334 312 307 318 316 284 263 247 236 250 270 273 275 271 253 238 225 215 223 221 212 207 206 204 198 195 219 238 213 187 175 171 172 172 167 172 197
118 112 122 231 248 242 237 231 221 204 122 67 80 208 232 177 148 157 160 149 147 149 149 156 177 193 205 198 101 73 70 59 34 33 59 71 58 43 27 2 4 9 13 11 3 359 4 4 4 9 356 326 308 299 235 247 270 274 267 273 288 281 276 270 237 210 210 214 211 197 196 201 202 194 184 183 231 242 210 185 181 184 178 170 173 189 219
119 122 116 92 269 242 186 168 193 160 99 85 212 228 206 142 144 153 151 150 155 155 159 174 193 198 174 87 80 65 63 65 44 44 61 70 61 53 50 36 22 15 15 17 10 5 13 19 17 10 357 343 330 318 249 224 292 298 286 280 297 295 282 258 215 200 216 220 204 185 188 194 193 184 170 170 224 230 205 191 191 188 179 178 187 209 237
115 76 78 102 232 222 166 138 115 89 132 195 214 193 100 125 141 143 145 157 161 153 154 178 155 121 95 84 86 75 64 67 64 60 63 64 57 53 51 44 37 35 33 33 32 26 20 23 24 12 356 350 341 340 12 65 329 315 310 301 305 303 146 160 177 194 236 216 194 188 188 181 173 166 155 170 207 212 203 200 199 189 186 191 206 229 251
128 120 177 197 213 225 186 142 156 199 201 196 179 144 122 128 139 144 146 156 162 152 145 145 136 119 103 96 97 90 79 74 74 70 66 64 60 56 53 49 48 47 45 43 44 42 37 31 26 13 2 1 355 358 24 56 9 326 326 333 333 350 94 244 238 261 251 226 209 199 184 172 167 162 163 187 205 210 210 210 205 198 199 211 227 243 256
164 175 215 234 235 250 255 175 190 219 227 179 148 136 133 140 154 159 148 146 155 151 138 133 127 117 114 112 104 98 92 78 71 69 65 66 66 62 57 52 48 47 45 45 46 46 43 40 36 24 13 19 20 12 22 65 78 338 335 339 328 315 294 292 307 302 252 226 217 202 187 181 179 175 187 204 210 212 214 215 216 217 222 232 243 249 253
191 192 245 296 325 316 315 308 198 198 170 158 144 128 132 150 154 144 143 147 150 148 140 131 124 127 132 122 105 103 96 73 64 68 65 63 65 65 60 52 47 47 47 47 46 44 42 42 42 37 30 41 48 21 0 122 141 156 190 205 205 196 181 191 222 227 209 189 206 206 199 194 194 198 211 215 215 215 217 222 232 238 241 244 246 247 245
120 99 337 324 313 300 324 8 65 77 72 101 134 134 139 141 128 123 133 136 133 136 139 133 130 136 138 125 112 102 95 84 72 67 64 61 64 68 65 55 50 50 48 46 44 41 39 41 43 41 44 70 88 52 285 196 168 171 176 183 189 181 171 173 183 184 175 166 183 206 210 207 208 216 221 220 219 222 227 233 241 246 248 248 245 243 240
119 184 254 286 284 291 359 48 100 107 94 82 85 107 118 111 105 109 117 123 127 132 133 130 128 130 134 131 128 120 106 105 96 76 71 73 73 70 64 56 50 47 45 45 43 38 36 40 44 44 54 85 115 150 267 253 208 185 174 180 199 197 179 174 172 168 164 163 169 187 203 208 213 218 219 220 225 232 239 245 251 254 255 253 253 251 238
78 179 217 226 69 34 16 36 75 107 128 110 94 98 111 110 108 104 97 100 122 134 136 134 129 129 138 139 129 127 130 134 123 97 82 77 74 68 59 51 48 46 45 46 46 42 39 43 49 50 59 83 123 172 211 265 268 230 182 177 198 217 204 180 168 163 162 162 167 183 199 208 213 215 214 217 226 236 245 251 256 259 258 258 266 261 234
137 212 200 168 129 96 304 101 94 103 133 120 111 113 117 116 120 118 103 87 91 114 129 135 131 130 143 147 135 138 153 145 116 95 84 77 70 63 57 53 52 52 52 51 50 48 46 46 48 50 57 73 99 168 223 243 266 268 238 190 191 199 201 189 184 186 183 172 173 188 200 204 207 209 208 212 222 231 242 251 252 253 251 254 260 236 207
211 218 194 162 130 137 203 179 118 117 130 120 118 122 122 123 130 130 123 116 110 105 112 125 131 134 145 149 144 140 140 124 101 88 82 77 69 61 58 57 57 56 56 53 50 49 45 39 38 42 47 57 69 86 230 227 231 250 266 266 239 210 194 188 188 194 198 192 188 196 203 203 203 205 203 202 209 218 227 236 241 244 237 208 174 174 193
196 193 171 160 131 123 159 156 128 120 119 115 114 115 117 122 126 126 125 128 131 127 112 118 136 142 142 144 143 133 119 111 99 90 82 76 71 65 61 60 59 57 55 51 45 41 35 28 27 34 40 46 48 45 194 201 207 220 230 237 245 249 235 215 205 203 202 197 195 200 204 204 205 207 201 192 188 191 199 207 207 194 176 162 159 170 189
92 143 156 150 123 113 118 110 89 79 93 111 113 111 115 120 121 120 119 119 127 132 129 131 146 147 141 137 133 123 113 104 95 90 82 75 71 66 60 58 58 55 51 47 40 32 24 18 21 30 37 41 39 27 19 178 192 206 214 218 224 226 223 223 228 228 221 210 206 208 209 207 208 208 203 194 186 177 175 179 178 172 168 168 171 173 170
105 123 105 86 85 101 110 99 81 73 94 112 112 108 112 116 116 117 119 122 129 133 134 137 144 144 137 131 124 117 110 100 90 85 80 75 70 65 60 58 56 52 50 44 36 28 20 15 22 33 36 35 31 21 12 20 173 197 205 210 215 215 210 210 216 220 219 218 217 217 214 210 209 208 204 200 193 181 173 171 174 178 180 179 179 175 171
135 137 108 91 89 123 181 159 134 138 136 122 116 112 112 114 112 109 109 114 122 127 132 136 137 133 128 126 122 117 110 97 86 82 80 78 73 67 63 58 53 49 47 42 34 29 24 21 28 37 36 27 21 16 11 14 22 22 212 208 209 211 213 214 213 210 210 214 217 217 216 213 210 206 202 199 194 187 181 176 176 181 185 185 183 182 183
161 183 113 128 154 176 190 143 123 128 129 123 123 122 117 114 112 109 108 111 118 122 127 133 134 132 131 129 123 113 101 92 88 87 85 83 77 68 58 53 48 45 44 41 36 31 28 26 28 32 30 23 18 14 9 10 16 17 5 273 207 203 209 215 214 211 211 214 216 218 221 220 215 208 202 198 196 193 188 182 178 180 184 185 186 189 196
177 283 11 105 135 133 120 110 112 117 119 121 124 125 123 119 115 114 121 127 127 125 127 133 136 135 135 131 122 109 100 98 99 98 92 83 74 63 53 49 49 49 48 46 39 32 28 26 26 28 26 22 19 16 11 7 10 15 18 15 1 219 211 214 216 216 219 222 223 223 224 224 221 214 206 202 199 196 190 185 183 185 186 187 190 199 209
167 59 88 107 115 120 124 126 130 132 132 130 127 127 129 129 125 128 138 139 137 137 136 136 135 134 130 125 117 111 111 111 107 101 90 78 69 61 53 46 43 43 44 44 40 35 30 26 25 26 25 21 17 16 14 8 5 10 18 19 14 359 285 237 229 225 225 229 230 229 226 223 219 213 207 204 201 199 195 191 189 190 191 192 197 206 216
96 82 109 120 123 129 132 133 137 140 139 135 132 130 131 131 132 141 151 146 143 148 144 139 136 134 130 124 117 114 115 111 102 93 83 75 70 65 55 45 42 43 44 44 42 36 29 25 23 22 22 20 17 16 17 12 5 4 9 12 12 7 353 308 260 242 235 235 234 231 227 222 216 209 206 204 202 201 200 197 195 197 198 200 205 212 218
90 76 90 104 114 125 131 135 140 142 144 146 145 147 151 149 147 153 162 161 156 155 149 143 140 136 130 126 122 118 114 107 96 87 82 78 74 65 55 54 62 66 61 51 40 31 23 20 18 19 21 22 20 20 21 17 9 5 2 1 4 5 1 348 309 268 251 246 241 234 226 222 217 211 208 207 206 205 204 203 203 203 204 206 212 217 218
111 103 109 117 120 129 145 158 157 155 161 167 164 162 164 161 156 157 161 158 155 155 151 144 140 137 133 131 127 120 112 103 91 84 82 80 73 62 57 64 73 73 62 48 37 31 27 23 18 17 20 21 20 20 22 19 14 9 3 358 358 1 2 1 349 313 281 265 255 243 231 224 221 217 215 213 211 210 210 208 209 210 211 214 220 223 221
144 160 172 170 162 160 167 173 171 165 164 162 158 160 163 162 159 158 157 155 154 158 155 146 141 139 138 135 127 117 111 103 92 86 86 83 71 61 62 68 75 73 62 49 41 38 35 29 21 13 11 13 15 18 21 21 17 12 6 0 358 357 358 0 357 339 307 286 274 258 242 232 228 227 225 222 218 216 216 214 214 215 218 222 227 228 226
126 134 161 171 170 166 166 166 165 165 161 155 161 173 172 167 163 160 160 162 162 160 153 146 142 143 142 134 123 116 113 110 105 102 100 89 73 65 66 68 72 70 60 50 45 40 34 27 17 6 1 5 10 13 17 19 18 14 8 1 358 356 354 353 353 346 329 307 288 270 255 246 241 238 234 229 224 223 223 220 219 220 223 228 231 230 229
118 116 135 158 160 160 164 165 164 165 165 165 169 172 171 171 170 169 168 168 163 156 151 147 146 146 141 131 124 123 122 119 116 114 107 93 80 77 75 69 65 59 50 44 41 38 31 23 12 1 357 2 9 12 14 16 17 15 11 4 357 354 350 347 346 343 335 324 306 286 271 262 254 248 242 234 227 226 226 226 225 225 228 232 234 231 227
148 145 149 153 154 161 170 174 171 169 167 166 167 168 172 177 178 174 170 167 161 156 153 151 149 145 138 130 127 128 127 125 122 116 108 99 93 90 83 72 63 54 43 35 32 31 25 16 7 0 358 4 10 14 16 15 13 11 10 6 0 353 347 343 342 339 334 329 319 301 284 271 261 255 248 240 233 229 230 230 230 229 231 233 232 228 224
143 149 155 158 158 163 170 177 176 171 163 160 168 175 179 180 177 171 167 166 162 158 157 154 149 142 135 130 129 131 130 129 124 117 110 105 100 96 87 74 64 58 48 36 29 27 23 16 12 11 10 10 10 10 11 10 6 2 2 2 0 355 347 340 337 336 334 331 325 311 294 277 265 257 251 246 241 237 235 233 233 232 232 231 228 223 221
126 135 148 152 153 155 157 163 172 173 168 168 173 178 178 176 172 167 165 163 162 160 158 152 145 138 134 134 136 138 136 134 129 121 115 110 105 100 90 77 69 66 56 42 33 33 30 26 26 24 19 13 9 6 3 1 359 357 356 356 356 355 351 342 333 330 330 328 325 317 304 290 278 269 260 253 248 245 241 238 237 235 232 230 227 222 220
137 141 147 146 147 150 151 155 166 176 179 179 177 174 174 173 169 163 161 161 163 163 160 151 144 141 142 144 145 144 141 138 133 127 119 113 111 105 92 80 76 70 54 40 38 39 35 30 30 28 23 18 14 8 1 358 356 357 357 357 354 353 351 345 336 329 325 323 322 318 313 304 292 281 270 260 252 248 245 242 239 236 232 230 228 224 221
146 150 151 149 151 155 156 157 160 166 175 180 178 177 177 175 170 167 165 164 164 164 160 153 149 150 152 152 150 149 145 138 133 130 123 116 114 109 95 83 81 70 48 36 36 36 31 28 28 26 21 18 15 8 0 357 356 356 357 358 357 355 352 348 340 332 325 320 316 314 314 309 298 287 278 267 256 250 246 243 240 237 234 233 230 226 222
143 144 143 143 148 154 155 156 157 160 168 177 180 179 178 177 175 172 168 164 161 158 157 155 156 156 155 154 151 146 141 137 134 129 121 115 114 110 100 94 89 70 42 30 29 29 26 26 26 23 18 15 11 5 1 360 359 357 355 355 355 355 354 351 345 337 329 321 314 310 310 306 299 293 288 278 263 253 247 245 242 239 237 236 234 230 225
143 140 136 136 142 148 150 152 156 160 166 175 182 183 181 179 175 169 161 157 156 155 155 157 159 158 156 155 150 142 139 140 136 126 118 115 109 101 98 101 95 67 36 26 24 24 23 23 23 21 18 16 13 9 6 5 4 360 356 354 352 352 351 350 347 343 335 327 318 312 308 303 298 294 291 286 278 267 256 250 247 245 243 242 239 235 230
139 134 131 131 135 138 140 143 146 151 157 167 178 181 178 174 171 165 159 155 155 156 157 159 160 160 159 154 147 141 142 143 137 127 123 119 107 93 92 99 88 54 28 19 18 21 22 21 20 18 18 19 18 15 12 11 8 4 360 356 354 353 350 347 346 343 337 331 324 317 311 306 300 294 289 286 283 276 265 254 249 247 247 246 243 239 233
133 132 134 135 136 138 141 144 145 147 148 148 154 164 167 166 164 161 158 155 154 156 159 161 161 159 155 144 134 133 136 137 131 124 120 117 108 100 98 93 63 31 16 11 13 20 22 19 16 15 17 18 17 13 12 12 10 6 3 359 356 354 351 347 343 339 335 330 326 320 316 311 304 298 293 288 284 281 276 267 257 251 250 248 245 241 236
131 133 136 136 136 138 143 145 143 141 137 131 129 140 153 156 154 153 153 154 154 156 160 161 158 153 146 138 133 133 132 125 120 120 120 119 120 119 108 76 36 21 14 10 12 18 17 13 12 13 14 14 12 10 10 10 8 4 1 358 354 351 348 344 340 336 332 328 324 320 316 312 306 302 299 295 289 284 283 278 268 258 254 251 248 244 239
128 130 132 131 129 130 134 135 132 131 128 124 118 123 135 141 143 144 146 149 150 151 153 152 147 141 137 134 136 137 129 114 108 112 120 121 118 109 87 55 38 33 29 22 18 15 9 3 2 3 4 5 5 5 5 6 4 1 358 354 349 345 341 338 335 332 329 325 323 319 315 310 307 304 302 299 293 286 281 277 270 261 255 253 250 245 240
129 129 130 129 128 129 132 132 129 125 124 125 124 124 128 133 137 139 142 145 146 145 144 142 140 141 139 136 137 142 134 118 111 118 126 124 111 92 72 54 45 41 36 30 23 15 5 358 354 352 352 355 357 358 359 359 359 358 355 351 346 342 338 334 332 329 326 323 321 318 314 310 306 304 301 299 295 289 283 278 271 264 258 254 250 245 241
130 129 128 129 130 132 134 133 128 128 133 134 133 135 140 143 142 142 144 145 142 140 143 147 151 155 154 149 150 157 154 141 136 138 137 126 107 90 76 60 47 39 33 27 20 13 5 357 350 346 344 346 350 352 355 356 356 356 353 348 344 340 337 334 333 331 327 323 319 316 313 309 304 301 299 297 294 291 287 282 277 272 266 260 254 249 245
131 130 131 134 138 142 145 144 141 142 144 142 140 143 148 147 142 140 143 144 143 145 152 158 160 160 159 154 146 144 144 145 145 144 140 131 113 95 77 60 46 37 29 22 15 8 1 354 348 343 339 338 343 348 353 355 356 354 351 347 343 340 337 335 334 333 331 327 323 318 314 309 304 300 297 294 291 290 288 285 281 278 272 265 259 253 248
139 137 138 142 145 148 152 153 151 149 148 146 145 149 153 151 147 147 152 153 152 151 149 148 148 151 152 150 147 147 150 153 153 149 144 135 117 94 71 53 41 32 24 18 13 7 0 354 348 342 335 332 338 347 352 353 352 351 349 347 344 340 337 335 334 333 331 329 325 319 314 310 306 302 298 294 291 289 287 284 280 277 273 269 265 259 251
134 134 134 134 133 133 135 142 148 150 150 149 150 154 157 155 152 155 160 164 165 163 158 153 153 158 162 162 162 163 164 162 159 155 149 137 116 89 62 44 34 28 22 18 14 9 3 356 350 344 339 338 343 348 350 349 347 345 345 344 342 340 338 336 334 332 329 327 323 318 313 309 306 302 298 294 291 288 285 281 277 274 271 270 269 266 258
Height
778 777 774 771 775 778 776 775 776 774 775 777 776 778 780 781 785 791 795 799 799 798 800 799 799 800 798 797 795 793 793 794 795 796 797 798 799 798 797 796 795 794 791 790 793 795 795 794 795 795 796 796 797 799 800 800 801 802 803 804 804 804 803 803 804 804 804 805 805 805 804 803 803 803 803 804 804 805 805 806 806 807 807 808 808 809 809
778 776 775 772 775 782 783 784 783 780 779 781 783 787 787 783 783 788 794 799 797 795 798 798 797 797 795 794 794 793 795 796 796 797 798 799 799 797 796 796 794 793 791 791 793 794 793 793 794 795 795 795 797 798 799 800 801 802 802 803 804 804 804 804 805 805 805 804 804 804 803 802 801 802 802 803 803 804 805 806 807 807 807 808 808 809 809
784 779 777 778 779 782 784 787 787 784 783 784 787 790 789 788 794 797 796 799 800 797 797 796 795 795 795 796 796 795 796 796 797 798 798 798 798 796 795 795 794 792 790 791 793 793 792 792 793 794 794 795 797 798 799 800 801 801 802 802 803 803 804 804 804 804 804 803 803 803 803 802 802 802 802 802 802 804 805 806 807 807 808 808 808 809 810
792 781 780 784 780 776 781 786 788 788 788 787 788 789 787 786 794 801 800 799 799 797 796 796 796 795 796 798 797 796 796 797 797 797 796 797 797 795 795 794 793 792 790 790 791 791 791 791 792 793 794 795 797 798 799 800 801 801 801 802 803 803 803 803 802 802 802 803 803 803 803 802 802 802 802 801 802 803 804 805 806 807 808 808 809 810 810
794 784 781 783 778 780 789 791 789 790 790 789 788 788 787 785 788 795 796 791 791 795 796 797 799 798 798 798 797 795 796 796 796 797 797 797 796 794 794 793 792 792 790 789 790 790 790 790 791 792 793 795 797 798 799 799 800 801 801 802 802 802 802 802 801 800 801 801 802 802 802 803 802 802 802 801 802 803 804 805 806 807 808 809 809 810 810
792 788 780 778 787 799 801 790 784 786 787 787 789 791 791 789 787 788 789 789 792 795 795 795 798 797 795 796 794 793 795 795 796 798 798 797 796 794 793 793 792 791 790 789 789 789 789 790 791 792 793 794 796 797 797 798 799 800 801 801 801 801 800 800 800 800 801 801 801 802 802 803 803 803 803 802 803 804 805 806 806 807 808 809 809 810 811
792 790 784 793 810 808 792 783 781 781 784 784 786 791 793 791 790 788 789 794 795 794 794 794 794 793 793 794 794 793 794 794 795 797 796 795 794 793 793 792 792 791 790 790 789 788 789 790 791 792 793 794 795 796 796 797 798 799 800 800 800 800 799 799 801 802 803 803 802 801 801 803 804 803 803 803 804 805 806 807 808 807 808 809 810 811 811
796 795 798 809 813 797 784 784 782 778 782 780 779 788 793 790 789 788 790 795 796 794 795 794 793 793 794 794 794 793 793 794 794 795 794 793 793 792 792 792 791 791 791 791 790 789 789 790 790 791 792 794 795 796 796 798 798 799 799 799 799 799 799 799 801 802 802 801 800 799 800 802 803 803 803 804 805 806 806 808 809 808 808 809 810 811 812
802 806 811 808 804 798 792 789 782 776 780 779 777 789 794 788 787 789 791 795 796 795 796 795 793 794 795 798 798 793 791 793 792 792 792 791 791 790 790 791 792 792 792 792 791 791 790 790 791 791 792 794 795 797 797 798 798 799 799 799 799 799 798 799 800 800 799 799 799 800 801 802 803 803 803 805 806 806 807 808 809 809 809 810 811 811 812
804 807 813 813 815 811 796 784 776 771 774 774 774 786 794 787 784 788 790 793 796 796 797 797 794 795 800 806 802 793 791 791 790 790 790 790 790 791 791 792 793 793 793 792 792 792 791 791 792 792 793 795 796 798 799 799 799 799 800 800 800 800 799 798 799 799 799 800 800 801 801 803 803 803 804 805 807 807 808 808 809 810 810 810 811 812 812
801 800 809 818 817 803 785 777 773 770 772 770 772 790 800 788 781 786 790 792 795 795 795 795 795 799 806 809 801 792 791 791 789 790 790 789 791 792 792 793 794 793 794 793 793 792 792 792 793 793 794 796 798 800 800 800 799 800 800 801 800 800 799 799 799 799 799 801 801 801 802 802 803 803 804 806 807 807 808 809 809 810 810 811 811 812 812
799 799 806 811 804 789 778 774 772 771 768 766 784 809 804 781 777 785 787 790 792 792 794 796 796 799 803 801 796 791 790 790 790 791 791 791 792 792 793 794 794 794 794 794 794 794 793 794 794 795 796 797 799 801 801 800 799 799 800 800 799 799 799 799 799 799 799 801 801 800 802 802 803 803 804 805 807 808 808 809 810 810 811 811 811 812 812
799 801 804 805 797 782 774 774 771 767 767 778 801 809 787 770 778 783 782 787 790 789 793 795 793 793 793 792 791 790 789 791 791 792 792 793 793 794 795 795 795 795 795 795 795 795 795 796 796 797 797 798 800 802 802 801 799 798 800 800 799 799 799 800 800 800 800 800 800 800 801 802 802 804 804 804 806 808 809 810 810 811 811 811 811 812 812
803 802 801 806 799 778 769 771 768 765 777 794 797 782 767 768 777 780 781 786 787 786 790 792 791 791 790 790 791 791 791 793 793 793 794 794 795 796 796 796 796 796 796 796 796 796 797 798 798 798 798 799 800 801 803 802 799 797 799 801 800 799 800 800 800 800 801 801 800 800 801 802 803 804 804 804 806 808 809 810 811 811 811 811 811 812 812
804 804 803 807 799 775 763 769 771 771 780 784 775 767 768 771 773 778 782 784 784 786 789 791 791 791 790 791 793 793 794 794 795 795 796 796 797 798 797 798 797 797 797 797 797 797 798 799 799 799 799 799 800 800 803 804 801 797 799 802 801 800 800 800 800 800 801 802 802 802 802 803 803 804 804 805 808 809 810 811 811 811 811 811 811 812 812
793 797 795 790 781 768 761 765 770 769 768 765 762 766 771 771 773 778 781 782 784 785 787 790 792 791 791 793 794 795 796 796 796 798 798 799 799 799 798 799 798 798 798 798 798 798 799 799 800 800 800 800 800 800 803 805 803 798 798 800 801 800 800 800 800 801 802 803 804 805 804 804 805 805 806 808 810 811 811 812 812 812 811 811 811 811 812
782 783 780 773 769 767 764 763 764 762 760 760 761 763 767 771 774 775 777 782 785 784 785 789 791 791 793 794 795 796 798 797 798 799 799 800 800 800 800 800 800 799 799 799 799 799 799 799 800 799 799 800 800 799 801 803 802 798 796 797 798 798 798 799 800 802 803 804 805 806 806 806 806 806 808 810 811 812 812 812 812 812 812 812 811 811 812
777 775 772 770 768 767 765 762 762 761 760 760 760 762 766 770 771 772 776 780 782 783 785 788 791 793 794 794 796 797 798 798 799 799 800 801 801 801 802 801 801 801 800 799 799 799 799 799 799 799 799 799 799 797 795 795 796 794 790 790 792 793 794 796 798 800 802 803 805 806 806 807 807 807 809 811 811 812 812 812 812 812 812 812 811 811 811
777 776 773 771 769 768 766 764 762 761 760 760 760 762 766 768 770 773 776 777 780 783 785 786 791 794 794 795 798 799 798 800 801 800 801 802 802 803 803 802 802 802 801 800 800 800 800 800 799 799 798 798 796 794 790 788 790 789 786 783 785 786 788 790 793 796 798 799 801 803 805 805 806 807 809 810 811 811 811 812 812 812 811 811 811 810 811
775 776 774 770 768 767 765 764 763 763 762 762 762 763 765 769 772 774 775 778 781 784 786 788 791 794 796 797 798 799 801 802 802 802 803 803 803 804 803 803 803 802 801 801 801 800 800 800 799 799 798 796 795 793 789 787 788 790 790 787 785 785 785 786 789 791 793 793 795 798 801 803 805 806 807 809 810 810 811 811 811 811 810 810 809 809 810
775 775 773 770 769 769 767 765 765 765 763 763 765 766 768 770 773 776 778 780 781 783 787 788 790 794 797 797 798 800 802 802 803 804 804 803 804 804 804 803 803 802 801 801 801 800 800 800 799 799 798 797 796 794 791 788 787 788 791 791 791 791 790 790 790 791 791 790 791 794 798 802 804 806 806 807 809 809 810 811 810 810 809 808 808 808 809
776 772 768 766 768 771 770 767 766 765 764 763 766 769 771 772 774 776 780 784 785 786 787 788 790 795 797 797 799 801 802 802 803 804 803 804 804 804 804 804 803 802 802 802 801 801 800 799 799 799 798 798 798 795 793 791 788 786 787 789 792 795 796 796 794 793 793 793 793 796 800 802 805 806 806 806 808 809 810 810 810 809 808 808 807 808 809
768 764 762 763 765 768 769 767 766 765 764 764 767 771 772 774 775 775 778 784 788 790 791 791 792 794 796 798 800 801 802 803 803 803 804 805 805 805 805 805 804 804 803 802 801 801 800 799 799 799 799 799 799 797 795 793 791 789 787 787 789 792 796 797 796 795 796 796 797 799 802 803 804 805 805 806 807 808 809 810 809 808 808 807 807 808 809
761 760 760 762 762 764 766 766 765 765 764 765 769 772 773 774 776 776 778 782 786 789 793 794 795 796 797 799 800 801 802 803 803 804 806 805 805 807 806 805 805 805 803 802 801 800 800 799 799 799 799 800 799 798 797 794 793 791 790 789 789 790 793 794 794 795 797 797 798 800 802 803 803 804 805 806 807 808 809 809 809 808 808 808 808 809 809
758 759 759 760 761 764 765 765 766 766 765 766 769 772 774 775 777 778 781 783 786 788 792 795 797 798 798 798 800 801 802 803 804 805 806 806 807 807 806 806 806 805 804 803 802 800 799 799 798 798 799 799 799 798 797 796 795 793 792 792 791 791 791 791 792 794 796 797 798 799 800 801 802 803 804 805 806 807 808 808 808 808 808 808 809 809 809
757 758 759 761 764 765 766 767 769 769 768 768 770 773 775 776 778 780 783 785 788 789 791 794 797 798 798 799 800 802 803 804 805 805 805 807 807 807 807 807 807 806 805 804 802 800 799 798 798 798 799 799 798 797 797 797 797 795 794 794 794 794 793 791 792 794 795 796 797 798 799 800 801 802 803 804 805 806 807 807 808 808 808 808 809 809 809
757 757 758 766 772 771 767 767 769 770 770 770 771 774 777 778 780 783 785 788 790 792 793 794 796 797 799 800 801 802 804 804 804 805 806 807 808 808 809 808 807 806 805 803 802 801 799 798 798 798 798 798 797 796 796 796 796 795 795 795 795 796 795 794 794 795 796 796 797 797 798 799 799 800 801 802 803 804 805 805 806 806 807 808 809 809 809
758 757 757 762 768 769 766 766 767 768 771 772 772 775 778 780 782 785 788 790 792 793 795 796 796 797 799 801 802 803 803 804 805 806 807 808 808 809 808 808 807 806 805 803 802 801 799 798 798 798 798 798 797 796 796 795 795 795 794 794 794 795 795 795 796 796 796 796 796 796 797 798 798 799 800 801 802 803 804 804 805 805 806 807 808 809 809
759 759 758 758 760 762 764 767 769 771 773 774 774 776 779 782 785 788 790 792 793 794 796 797 798 798 800 801 801 802 803 804 806 807 808 808 808 808 808 808 807 806 805 804 803 801 800 799 798 798 798 797 796 795 795 794 794 794 793 792 793 793 793 794 795 796 796 796 796 796 796 796 797 799 800 801 801 802 803 804 804 805 806 806 807 808 809
760 760 759 759 760 762 765 769 772 773 774 776 777 778 780 782 786 790 791 792 793 795 796 797 798 799 800 801 801 803 804 805 806 807 808 808 807 807 807 807 806 805 805 804 803 802 801 799 798 798 798 797 796 796 795 794 794 793 792 792 791 791 792 793 793 794 794 795 795 795 795 795 795 796 798 799 800 801 802 803 804 804 805 806 807 807 807
761 761 761 762 763 764 767 770 773 774 775 776 778 781 782 784 787 790 792 793 794 795 796 797 798 799 800 801 802 803 804 805 806 807 807 807 807 807 807 806 806 806 805 805 804 803 801 800 799 799 798 798 797 796 794 794 793 793 792 791 791 790 791 791 792 792 792 792 792 793 793 793 793 794 796 797 798 799 801 802 802 803 804 805 806 806 806
762 765 766 766 766 768 770 771 773 776 777 778 779 781 782 784 785 788 790 792 793 794 795 796 797 798 799 801 802 803 804 805 806 806 806 806 807 807 807 806 806 806 806 806 805 804 802 801 800 799 798 798 797 796 795 794 793 792 792 791 790 790 790 790 790 791 791 790 791 791 791 792 792 793 794 795 796 797 799 800 801 802 803 803 804 804 805
761 766 769 769 770 772 773 774 774 775 777 777 778 779 780 781 783 785 787 790 792 793 794 795 796 797 799 800 802 803 803 804 805 806 806 807 807 807 807 807 807 806 806 806 805 804 803 802 800 799 799 798 797 796 795 794 793 792 791 790 790 790 789 789 789 789 789 789 790 789 790 791 791 792 793 793 794 796 797 798 799 800 801 802 802 803 804
753 757 760 761 762 765 768 771 772 774 776 777 778 779 780 781 783 784 786 788 791 792 793 794 796 797 799 801 801 802 803 804 805 806 807 807 807 808 807 807 807 807 807 806 805 805 804 802 801 800 799 798 797 796 795 793 793 792 791 790 789 789 789 788 788 788 788 789 789 789 790 790 790 790 791 792 793 794 794 795 797 798 799 799 801 802 803
749 750 753 754 755 757 759 763 768 771 774 776 778 779 780 781 782 784 786 787 789 791 792 794 796 797 799 800 801 802 803 805 806 807 807 807 808 808 807 807 807 807 807 806 806 805 804 803 802 801 799 798 797 795 794 793 793 791 790 790 789 789 788 788 788 788 788 788 788 788 789 789 789 789 790 790 791 792 793 793 795 796 796 797 798 799 801
749 751 753 755 756 757 759 761 764 767 770 772 775 777 779 781 782 783 785 787 789 791 792 794 796 798 799 800 801 803 804 805 806 807 807 807 808 808 808 807 807 807 807 807 806 805 805 804 802 801 799 798 797 795 794 793 792 791 791 790 789 788 788 788 788 788 788 787 787 787 787 787 788 788 789 789 790 790 791 792 793 793 794 795 796 797 798
749 751 753 754 756 758 760 761 762 765 768 770 773 775 777 779 781 782 785 787 789 791 792 794 796 798 799 800 802 803 805 806 806 807 807 807 808 808 808 808 808 808 807 807 806 806 805 804 803 801 799 798 796 796 795 793 792 791 791 790 789 788 788 787 787 787 787 786 786 786 786 786 787 787 787 788 788 788 789 790 791 791 792 792 793 795 796
750 751 753 754 756 758 760 761 763 765 767 770 772 774 775 777 780 782 785 787 789 791 792 794 796 798 799 800 802 804 805 806 806 807 807 807 808 808 808 808 808 808 808 808 807 806 805 804 803 801 799 798 797 796 795 794 793 792 790 790 789 788 787 787 787 786 786 785 785 784 784 784 784 784 785 785 786 786 787 787 788 789 790 790 791 792 793
751 753 754 755 757 759 760 762 765 766 767 769 771 774 776 778 780 782 785 787 789 791 793 794 796 797 799 800 802 803 804 805 806 806 807 807 808 808 808 809 809 809 808 808 807 806 805 804 802 801 799 798 797 796 795 794 793 792 791 790 789 788 787 787 786 785 785 784 784 783 782 782 782 783 783 783 784 784 785 785 786 787 787 788 789 790 790
751 753 754 756 758 759 761 763 765 767 768 769 770 772 775 777 780 782 785 787 789 791 792 793 795 797 799 800 802 803 804 805 805 806 807 807 808 808 808 809 810 809 809 808 807 806 805 803 802 801 800 799 797 796 795 794 793 792 791 789 788 788 787 786 786 785 784 783 782 782 781 781 781 781 781 782 782 782 783 783 784 784 785 786 787 787 788
751 752 754 756 758 759 761 763 765 767 769 770 771 772 774 776 778 781 783 785 788 790 791 792 794 796 799 800 801 803 803 804 805 806 806 807 807 808 808 809 810 809 809 808 807 805 804 803 802 801 800 799 798 796 795 794 792 791 790 789 788 787 786 786 785 784 784 783 782 780 780 780 780 779 779 780 780 780 780 781 781 782 783 783 784 785 786
750 752 754 756 758 759 761 763 765 766 769 770 771 773 775 776 778 780 782 784 787 789 791 792 795 797 799 800 801 802 803 803 804 805 806 806 807 807 808 809 810 809 808 808 806 805 804 803 802 801 800 799 798 797 795 794 792 791 790 789 788 787 786 785 784 783 782 782 781 779 778 778 778 777 777 778 778 778 778 778 778 779 780 781 781 782 783
750 751 753 756 758 759 761 763 764 766 768 770 771 773 775 776 778 780 782 784 787 788 791 793 795 797 799 800 801 801 802 803 804 805 805 806 807 807 808 808 809 809 808 807 806 805 804 803 802 801 800 799 798 797 795 793 792 791 789 788 787 786 785 784 783 782 781 780 779 778 777 776 776 776 776 776 776 776 777 776 776 776 777 778 779 780 781
750 751 753 756 758 760 762 764 765 766 768 770 771 773 774 776 778 780 782 784 786 788 791 793 795 797 798 799 800 800 802 803 804 804 805 805 806 807 808 808 808 808 807 807 806 805 804 803 802 801 800 799 798 797 795 793 792 790 789 787 786 785 784 783 782 781 780 779 778 777 776 775 774 774 774 774 774 774 774 773 773 773 774 774 775 777 778
750 751 753 755 757 759 762 763 765 767 769 770 772 774 775 777 779 780 781 784 786 789 791 793 794 796 797 798 798 800 801 802 803 804 804 805 806 807 807 808 808 807 807 806 805 804 803 802 802 801 800 799 797 796 794 793 791 790 788 787 786 784 783 782 781 780 779 778 776 775 774 773 772 772 771 772 772 771 770 769 769 770 770 771 772 773 774
750 752 755 756 758 760 762 763 765 767 769 771 773 776 777 778 780 781 783 785 787 789 791 793 794 795 796 797 798 800 801 802 802 803 803 804 805 806 806 807 807 806 806 805 804 803 803 802 801 800 799 798 797 795 794 792 791 789 788 786 785 784 783 782 780 779 778 776 775 774 772 771 770 769 769 769 769 769 768 767 766 766 767 767 768 769 771
751 754 756 757 758 761 763 765 767 769 770 772 775 777 778 779 781 782 784 786 788 790 791 792 793 794 795 797 798 799 800 801 802 803 803 804 805 806 806 806 806 806 805 804 804 803 802 801 800 799 798 797 796 794 793 791 790 788 787 785 784 783 782 781 779 778 776 775 773 772 771 769 768 767 766 766 766 766 765 765 764 764 764 764 765 766 767
752 755 756 758 759 762 764 766 768 770 772 774 775 777 779 781 783 784 786 788 789 790 791 792 793 794 796 797 798 799 800 800 801 803 804 804 805 805 805 805 805 805 804 804 803 803 802 801 800 799 797 796 794 793 791 790 789 787 786 784 783 782 780 779 778 777 775 773 772 770 769 767 766 765 764 763 763 763 762 762 762 762 761 761 762 763 763
753 755 757 759 760 763 766 768 769 772 773 774 776 778 780 782 784 785 786 787 788 790 791 792 793 795 796 797 798 799 799 799 800 802 803 804 804 805 805 805 804 804 803 803 802 802 801 800 799 797 796 795 793 792 790 789 788 786 785 784 782 781 779 778 777 775 774 772 770 768 767 765 764 762 761 761 760 759 759 759 759 759 759 759 759 759 760
754 755 757 759 761 764 766 768 769 771 773 775 776 778 780 782 783 785 786 787 788 790 791 792 794 795 796 797 798 798 799 799 800 801 802 803 804 804 804 804 803 803 803 802 801 800 799 798 797 796 795 793 792 791 789 788 787 785 784 783 781 780 778 777 775 773 772 770 768 766 764 762 761 759 758 757 756 756 755 755 755 755 755 755 754 755 755
754 756 758 760 762 764 766 768 769 771 773 775 777 779 780 782 783 785 787 788 789 790 791 793 794 795 796 797 797 798 799 799 800 801 802 803 803 803 803 803 802 802 802 801 800 799 798 797 796 794 793 792 791 790 788 787 786 784 783 782 780 779 777 775 773 771 769 767 765 763 761 759 757 756 754 753 752 752 751 751 751 751 750 750 749 750 750
755 757 759 761 764 766 768 770 771 773 775 776 778 780 781 783 784 786 787 788 789 790 792 793 794 795 796 797 797 798 798 799 800 801 801 802 802 802 802 802 801 801 801 800 799 799 798 796 795 793 792 791 790 789 787 786 785 783 782 780 779 777 776 774 772 770 768 765 763 760 758 756 754 752 751 749 749 748 747 747 747 746 745 744 745 746 747